Time,TemperatureF,DewpointF,PressureIn,WindDirection,WindDirectionDegrees,WindSpeedMPH,WindSpeedGustMPH,Humidity,HourlyPrecipIn,Conditions,Clouds,dailyrainin,SoftwareType,DateUTC
2013-11-03 00:00:00,30.4,19.7,29.86,WNW,286,5.0,7.0,64,0.00,,,0.00,Wunderground v.1.15,2013-11-03 04:00:00,
2013-11-03 00:05:00,30.4,19.7,29.86,WNW,296,6.0,7.0,64,0.00,,,0.00,Wunderground v.1.15,2013-11-03 04:05:00,
2013-11-03 00:10:00,30.3,19.9,29.86,NW,313,7.0,7.0,65,0.00,,,0.00,Wunderground v.1.15,2013-11-03 04:10:00,
2013-11-03 00:15:00,30.1,20.1,29.86,WNW,294,5.0,7.0,66,0.00,,,0.00,Wunderground v.1.15,2013-11-03 04:15:00,
2013-11-03 00:25:00,29.9,19.9,29.86,NW,322,6.0,9.0,66,0.00,,,0.00,Wunderground v.1.15,2013-11-03 04:25:00,
2013-11-03 00:30:00,29.9,19.9,29.86,NW,310,5.0,5.0,66,0.00,,,0.00,Wunderground v.1.15,2013-11-03 04:30:00,
2013-11-03 00:35:00,29.8,19.8,29.86,NW,310,5.0,5.0,66,0.00,,,0.00,Wunderground v.1.15,2013-11-03 04:35:00,
2013-11-03 00:40:00,29.7,19.7,29.86,WNW,292,4.0,5.0,66,0.00,,,0.00,Wunderground v.1.15,2013-11-03 04:40:00,
2013-11-03 00:45:00,29.6,19.6,29.87,WNW,296,5.0,5.0,66,0.00,,,0.00,Wunderground v.1.15,2013-11-03 04:45:00,
2013-11-03 00:50:00,29.5,19.9,29.87,NW,319,4.0,4.0,67,0.00,,,0.00,Wunderground v.1.15,2013-11-03 04:50:00,
2013-11-03 00:55:00,29.3,20.0,29.87,NW,314,3.0,4.0,68,0.00,,,0.00,Wunderground v.1.15,2013-11-03 04:55:00,
2013-11-03 01:00:00,29.2,19.9,29.88,WNW,302,2.0,2.0,68,0.00,,,0.00,Wunderground v.1.15,2013-11-03 05:00:00,
2013-11-03 01:05:00,29.1,19.8,29.87,NW,309,3.0,5.0,68,0.00,,,0.00,Wunderground v.1.15,2013-11-03 05:05:00,
2013-11-03 01:15:00,29.1,19.8,29.88,WNW,298,4.0,4.0,68,0.00,,,0.00,Wunderground v.1.15,2013-11-03 05:15:00,
2013-11-03 01:20:00,28.9,20.0,29.88,WNW,300,3.0,3.0,69,0.00,,,0.00,Wunderground v.1.15,2013-11-03 05:20:00,
2013-11-03 01:25:00,28.8,19.9,29.88,WNW,300,2.0,3.0,69,0.00,,,0.00,Wunderground v.1.15,2013-11-03 05:25:00,
2013-11-03 01:30:00,28.8,20.2,29.89,WNW,296,2.0,3.0,70,0.00,,,0.00,Wunderground v.1.15,2013-11-03 05:30:00,
2013-11-03 01:35:00,28.8,19.9,29.90,WNW,298,2.0,3.0,69,0.00,,,0.00,Wunderground v.1.15,2013-11-03 05:35:00,
2013-11-03 01:40:00,28.7,20.1,29.90,NW,309,2.0,3.0,70,0.00,,,0.00,Wunderground v.1.15,2013-11-03 05:40:00,
2013-11-03 01:45:00,28.7,20.1,29.90,WNW,298,3.0,3.0,70,0.00,,,0.00,Wunderground v.1.15,2013-11-03 05:45:00,
2013-11-03 01:50:00,28.6,20.1,29.90,WNW,300,3.0,3.0,70,0.00,,,0.00,Wunderground v.1.15,2013-11-03 05:50:00,
2013-11-03 01:55:00,28.5,20.0,29.90,WNW,301,2.0,3.0,70,0.00,,,0.00,Wunderground v.1.15,2013-11-03 05:55:00,
2013-11-03 01:00:00,28.5,20.0,29.91,WNW,303,3.0,3.0,70,0.00,,,0.00,Wunderground v.1.15,2013-11-03 06:00:00,
2013-11-03 01:05:00,28.3,19.8,29.90,WNW,294,3.0,3.0,70,0.00,,,0.00,Wunderground v.1.15,2013-11-03 06:05:00,
2013-11-03 01:10:00,28.3,19.8,29.91,WNW,300,3.0,6.0,70,0.00,,,0.00,Wunderground v.1.15,2013-11-03 06:10:00,
2013-11-03 01:15:00,28.3,20.1,29.91,WNW,289,4.0,7.0,71,0.00,,,0.00,Wunderground v.1.15,2013-11-03 06:15:00,
2013-11-03 01:20:00,28.2,20.0,29.91,WNW,292,4.0,4.0,71,0.00,,,0.00,Wunderground v.1.15,2013-11-03 06:20:00,
2013-11-03 01:25:00,28.1,19.9,29.91,WNW,297,4.0,4.0,71,0.00,,,0.00,Wunderground v.1.15,2013-11-03 06:25:00,
2013-11-03 01:30:00,28.1,19.9,29.91,WNW,302,3.0,3.0,71,0.00,,,0.00,Wunderground v.1.15,2013-11-03 06:30:00,
2013-11-03 01:35:00,28.0,19.8,29.91,NW,323,3.0,3.0,71,0.00,,,0.00,Wunderground v.1.15,2013-11-03 06:35:00,
2013-11-03 01:40:00,27.9,20.0,29.92,NW,318,2.0,2.0,72,0.00,,,0.00,Wunderground v.1.15,2013-11-03 06:40:00,
2013-11-03 01:45:00,27.8,19.9,29.91,WNW,296,2.0,3.0,72,0.00,,,0.00,Wunderground v.1.15,2013-11-03 06:45:00,
2013-11-03 01:50:00,27.8,19.9,29.92,WNW,294,4.0,5.0,72,0.00,,,0.00,Wunderground v.1.15,2013-11-03 06:50:00,
2013-11-03 01:55:00,27.8,19.9,29.92,WNW,296,4.0,5.0,72,0.00,,,0.00,Wunderground v.1.15,2013-11-03 06:55:00,
2013-11-03 02:00:00,27.7,19.8,29.92,NW,311,4.0,4.0,72,0.00,,,0.00,Wunderground v.1.15,2013-11-03 07:00:00,
2013-11-03 02:05:00,27.7,19.8,29.92,WNW,286,4.0,7.0,72,0.00,,,0.00,Wunderground v.1.15,2013-11-03 07:05:00,
2013-11-03 02:15:00,27.6,20.1,29.92,West,279,4.0,7.0,73,0.00,,,0.00,Wunderground v.1.15,2013-11-03 07:15:00,
2013-11-03 02:20:00,27.6,19.8,29.92,West,277,4.0,6.0,72,0.00,,,0.00,Wunderground v.1.15,2013-11-03 07:20:00,
2013-11-03 02:25:00,27.6,19.8,29.92,NW,307,4.0,6.0,72,0.00,,,0.00,Wunderground v.1.15,2013-11-03 07:25:00,
2013-11-03 02:30:00,27.5,19.7,29.93,WNW,294,5.0,5.0,72,0.00,,,0.00,Wunderground v.1.15,2013-11-03 07:30:00,
2013-11-03 02:40:00,27.2,19.7,29.93,WNW,294,4.0,4.0,73,0.00,,,0.00,Wunderground v.1.15,2013-11-03 07:40:00,
2013-11-03 02:45:00,27.0,19.8,29.93,WNW,298,3.0,4.0,74,0.00,,,0.00,Wunderground v.1.15,2013-11-03 07:45:00,
2013-11-03 02:50:00,26.9,19.7,29.93,NW,317,2.0,5.0,74,0.00,,,0.00,Wunderground v.1.15,2013-11-03 07:50:00,
2013-11-03 02:55:00,26.9,19.7,29.94,WNW,290,2.0,5.0,74,0.00,,,0.00,Wunderground v.1.15,2013-11-03 07:55:00,
2013-11-03 03:00:00,26.8,19.9,29.94,WNW,290,2.0,3.0,75,0.00,,,0.00,Wunderground v.1.15,2013-11-03 08:00:00,
2013-11-03 03:05:00,26.8,19.9,29.95,NW,325,3.0,3.0,75,0.00,,,0.00,Wunderground v.1.15,2013-11-03 08:05:00,
2013-11-03 03:10:00,26.8,19.6,29.95,WNW,290,3.0,5.0,74,0.00,,,0.00,Wunderground v.1.15,2013-11-03 08:10:00,
2013-11-03 03:15:00,26.8,19.6,29.96,WNW,283,2.0,5.0,74,0.00,,,0.00,Wunderground v.1.15,2013-11-03 08:15:00,
2013-11-03 03:20:00,26.8,19.6,29.97,NW,305,2.0,2.0,74,0.00,,,0.00,Wunderground v.1.15,2013-11-03 08:20:00,
2013-11-03 03:25:00,26.8,19.6,29.97,WNW,296,2.0,3.0,74,0.00,,,0.00,Wunderground v.1.15,2013-11-03 08:25:00,
2013-11-03 03:30:00,26.7,19.5,29.97,WNW,293,1.0,2.0,74,0.00,,,0.00,Wunderground v.1.15,2013-11-03 08:30:00,
2013-11-03 03:35:00,26.5,19.6,29.97,WNW,283,1.0,2.0,75,0.00,,,0.00,Wunderground v.1.15,2013-11-03 08:35:00,
2013-11-03 03:40:00,26.5,19.6,29.98,WNW,300,1.0,3.0,75,0.00,,,0.00,Wunderground v.1.15,2013-11-03 08:40:00,
2013-11-03 03:45:00,26.4,19.5,29.98,NW,306,1.0,3.0,75,0.00,,,0.00,Wunderground v.1.15,2013-11-03 08:45:00,
2013-11-03 03:50:00,26.5,19.6,29.98,NW,306,2.0,2.0,75,0.00,,,0.00,Wunderground v.1.15,2013-11-03 08:50:00,
2013-11-03 03:55:00,26.4,19.5,29.98,NW,310,2.0,2.0,75,0.00,,,0.00,Wunderground v.1.15,2013-11-03 08:55:00,
2013-11-03 04:00:00,26.2,19.4,29.98,NW,310,0.0,0.0,75,0.00,,,0.00,Wunderground v.1.15,2013-11-03 09:00:00,
2013-11-03 04:05:00,26.0,19.2,29.99,WNW,288,0.0,5.0,75,0.00,,,0.00,Wunderground v.1.15,2013-11-03 09:05:00,
2013-11-03 04:10:00,26.1,19.3,29.99,NW,304,1.0,1.0,75,0.00,,,0.00,Wunderground v.1.15,2013-11-03 09:10:00,
2013-11-03 04:15:00,26.1,19.3,29.99,WNW,296,2.0,2.0,75,0.00,,,0.00,Wunderground v.1.15,2013-11-03 09:15:00,
2013-11-03 04:20:00,26.1,19.3,29.99,WNW,288,1.0,3.0,75,0.00,,,0.00,Wunderground v.1.15,2013-11-03 09:20:00,
2013-11-03 04:30:00,26.2,19.4,29.99,WNW,288,3.0,4.0,75,0.00,,,0.00,Wunderground v.1.15,2013-11-03 09:30:00,
2013-11-03 04:40:00,26.0,19.2,29.99,WNW,294,2.0,3.0,75,0.00,,,0.00,Wunderground v.1.15,2013-11-03 09:40:00,
2013-11-03 04:45:00,25.8,19.0,29.99,WNW,290,2.0,4.0,75,0.00,,,0.00,Wunderground v.1.15,2013-11-03 09:45:00,
2013-11-03 04:50:00,25.8,19.3,29.99,WNW,302,2.0,2.0,76,0.00,,,0.00,Wunderground v.1.15,2013-11-03 09:50:00,
2013-11-03 04:55:00,25.7,18.9,29.99,WNW,298,3.0,4.0,75,0.00,,,0.00,Wunderground v.1.15,2013-11-03 09:55:00,
2013-11-03 05:00:00,25.5,19.0,29.99,WNW,298,4.0,4.0,76,0.00,,,0.00,Wunderground v.1.15,2013-11-03 10:00:00,
2013-11-03 05:05:00,25.3,18.8,29.99,WNW,294,4.0,4.0,76,0.00,,,0.00,Wunderground v.1.15,2013-11-03 10:05:00,
2013-11-03 05:10:00,25.4,18.9,29.99,NW,306,4.0,4.0,76,0.00,,,0.00,Wunderground v.1.15,2013-11-03 10:10:00,
2013-11-03 05:15:00,25.6,19.1,29.99,WNW,303,5.0,5.0,76,0.00,,,0.00,Wunderground v.1.15,2013-11-03 10:15:00,
2013-11-03 05:20:00,25.9,19.1,30.00,WNW,290,6.0,6.0,75,0.00,,,0.00,Wunderground v.1.15,2013-11-03 10:20:00,
2013-11-03 05:25:00,26.0,19.2,30.00,WNW,291,6.0,7.0,75,0.00,,,0.00,Wunderground v.1.15,2013-11-03 10:25:00,
2013-11-03 05:30:00,25.9,19.1,30.00,WNW,292,5.0,5.0,75,0.00,,,0.00,Wunderground v.1.15,2013-11-03 10:30:00,
2013-11-03 05:40:00,25.8,19.0,30.00,WNW,300,5.0,5.0,75,0.00,,,0.00,Wunderground v.1.15,2013-11-03 10:40:00,
2013-11-03 05:45:00,25.7,18.9,30.01,WNW,292,4.0,5.0,75,0.00,,,0.00,Wunderground v.1.15,2013-11-03 10:45:00,
2013-11-03 05:55:00,25.6,18.8,30.01,NW,304,4.0,4.0,75,0.00,,,0.00,Wunderground v.1.15,2013-11-03 10:55:00,
2013-11-03 06:00:00,25.6,18.8,30.02,WNW,298,4.0,4.0,75,0.00,,,0.00,Wunderground v.1.15,2013-11-03 11:00:00,
2013-11-03 06:10:00,25.7,19.2,30.02,West,280,4.0,6.0,76,0.00,,,0.00,Wunderground v.1.15,2013-11-03 11:10:00,
2013-11-03 06:15:00,25.7,19.2,30.02,WNW,296,4.0,6.0,76,0.00,,,0.00,Wunderground v.1.15,2013-11-03 11:15:00,
2013-11-03 06:20:00,25.9,19.1,30.02,NW,317,5.0,5.0,75,0.00,,,0.00,Wunderground v.1.15,2013-11-03 11:20:00,
2013-11-03 06:25:00,26.1,19.3,30.03,WNW,290,5.0,5.0,75,0.00,,,0.00,Wunderground v.1.15,2013-11-03 11:25:00,
2013-11-03 06:30:00,25.9,19.1,30.03,WNW,288,4.0,6.0,75,0.00,,,0.00,Wunderground v.1.15,2013-11-03 11:30:00,
2013-11-03 06:35:00,26.0,19.2,30.03,NW,307,5.0,6.0,75,0.00,,,0.00,Wunderground v.1.15,2013-11-03 11:35:00,
2013-11-03 06:40:00,26.1,19.3,30.03,WNW,294,6.0,6.0,75,0.00,,,0.00,Wunderground v.1.15,2013-11-03 11:40:00,
2013-11-03 06:45:00,26.3,19.1,30.04,WNW,292,7.0,7.0,74,0.00,,,0.00,Wunderground v.1.15,2013-11-03 11:45:00,
2013-11-03 06:50:00,26.5,19.3,30.04,West,281,7.0,7.0,74,0.00,,,0.00,Wunderground v.1.15,2013-11-03 11:50:00,
2013-11-03 06:55:00,26.6,19.1,30.05,WNW,294,8.0,8.0,73,0.00,,,0.00,Wunderground v.1.15,2013-11-03 11:55:00,
2013-11-03 07:00:00,26.8,19.0,30.05,WNW,288,8.0,8.0,72,0.00,,,0.00,Wunderground v.1.15,2013-11-03 12:00:00,
2013-11-03 07:05:00,26.8,19.3,30.05,WNW,298,6.0,8.0,73,0.00,,,0.00,Wunderground v.1.15,2013-11-03 12:05:00,
2013-11-03 07:10:00,26.9,19.4,30.05,NNW,329,6.0,6.0,73,0.00,,,0.00,Wunderground v.1.15,2013-11-03 12:10:00,
2013-11-03 07:15:00,27.3,19.1,30.06,NW,309,8.0,14.0,71,0.00,,,0.00,Wunderground v.1.15,2013-11-03 12:15:00,
2013-11-03 07:25:00,27.6,19.8,30.06,WNW,292,7.0,10.0,72,0.00,,,0.00,Wunderground v.1.15,2013-11-03 12:25:00,
2013-11-03 07:30:00,27.8,19.9,30.07,NW,312,6.0,6.0,72,0.00,,,0.00,Wunderground v.1.15,2013-11-03 12:30:00,
2013-11-03 07:35:00,27.9,18.7,30.07,NNW,342,8.0,15.0,68,0.00,,,0.00,Wunderground v.1.15,2013-11-03 12:35:00,
2013-11-03 07:40:00,28.1,17.5,30.08,North,355,12.0,16.0,64,0.00,,,0.00,Wunderground v.1.15,2013-11-03 12:40:00,
2013-11-03 07:45:00,28.1,17.1,30.08,NNW,331,14.0,22.0,63,0.00,,,0.00,Wunderground v.1.15,2013-11-03 12:45:00,
2013-11-03 07:50:00,28.2,17.2,30.08,NNW,331,13.0,13.0,63,0.00,,,0.00,Wunderground v.1.15,2013-11-03 12:50:00,
2013-11-03 07:55:00,28.3,17.3,30.08,NW,316,12.0,13.0,63,0.00,,,0.00,Wunderground v.1.15,2013-11-03 12:55:00,
2013-11-03 08:00:00,28.4,17.4,30.09,North,355,11.0,16.0,63,0.00,,,0.00,Wunderground v.1.15,2013-11-03 13:00:00,
2013-11-03 08:05:00,28.4,17.0,30.08,NNW,334,12.0,16.0,62,0.00,,,0.00,Wunderground v.1.15,2013-11-03 13:05:00,
2013-11-03 08:10:00,28.5,17.5,30.08,NNW,331,11.0,13.0,63,0.00,,,0.00,Wunderground v.1.15,2013-11-03 13:10:00,
2013-11-03 08:15:00,28.6,17.2,30.09,NNW,345,10.0,18.0,62,0.00,,,0.00,Wunderground v.1.15,2013-11-03 13:15:00,
2013-11-03 08:20:00,28.7,16.9,30.09,NNW,336,11.0,11.0,61,0.00,,,0.00,Wunderground v.1.15,2013-11-03 13:20:00,
2013-11-03 08:25:00,28.7,16.9,30.10,NNW,334,11.0,11.0,61,0.00,,,0.00,Wunderground v.1.15,2013-11-03 13:25:00,
2013-11-03 08:30:00,28.9,16.7,30.09,NNW,345,12.0,12.0,60,0.00,,,0.00,Wunderground v.1.15,2013-11-03 13:30:00,
2013-11-03 08:35:00,29.0,16.8,30.10,NW,313,12.0,16.0,60,0.00,,,0.00,Wunderground v.1.15,2013-11-03 13:35:00,
2013-11-03 08:40:00,29.2,17.0,30.10,NW,313,11.0,13.0,60,0.00,,,0.00,Wunderground v.1.15,2013-11-03 13:40:00,
2013-11-03 08:45:00,29.3,16.7,30.09,NW,326,11.0,13.0,59,0.00,,,0.00,Wunderground v.1.15,2013-11-03 13:45:00,
2013-11-03 08:50:00,29.4,16.8,30.10,NW,306,12.0,12.0,59,0.00,,,0.00,Wunderground v.1.15,2013-11-03 13:50:00,
2013-11-03 08:55:00,29.5,17.7,30.10,NNW,331,11.0,12.0,61,0.00,,,0.00,Wunderground v.1.15,2013-11-03 13:55:00,
2013-11-03 09:00:00,29.7,17.5,30.11,NW,306,10.0,10.0,60,0.00,,,0.00,Wunderground v.1.15,2013-11-03 14:00:00,
2013-11-03 09:05:00,29.8,17.6,30.11,NW,306,10.0,10.0,60,0.00,,,0.00,Wunderground v.1.15,2013-11-03 14:05:00,
2013-11-03 09:10:00,29.9,17.3,30.11,NW,325,9.0,10.0,59,0.00,,,0.00,Wunderground v.1.15,2013-11-03 14:10:00,
2013-11-03 09:15:00,29.9,18.1,30.12,NW,323,11.0,12.0,61,0.00,,,0.00,Wunderground v.1.15,2013-11-03 14:15:00,
2013-11-03 09:20:00,30.3,18.5,30.11,NW,325,10.0,10.0,61,0.00,,,0.00,Wunderground v.1.15,2013-11-03 14:20:00,
2013-11-03 09:25:00,30.5,18.3,30.12,NW,326,9.0,10.0,60,0.00,,,0.00,Wunderground v.1.15,2013-11-03 14:25:00,
2013-11-03 09:30:00,30.5,17.9,30.12,WNW,300,9.0,9.0,59,0.00,,,0.00,Wunderground v.1.15,2013-11-03 14:30:00,
2013-11-03 09:35:00,30.3,18.1,30.12,NW,317,9.0,12.0,60,0.00,,,0.00,Wunderground v.1.15,2013-11-03 14:35:00,
2013-11-03 09:40:00,30.5,18.6,30.12,NW,310,12.0,19.0,61,0.00,,,0.00,Wunderground v.1.15,2013-11-03 14:40:00,
2013-11-03 09:45:00,30.7,18.8,30.12,NW,314,11.0,19.0,61,0.00,,,0.00,Wunderground v.1.15,2013-11-03 14:45:00,
2013-11-03 09:50:00,30.7,18.4,30.12,NNW,330,11.0,14.0,60,0.00,,,0.00,Wunderground v.1.15,2013-11-03 14:50:00,
2013-11-03 09:55:00,30.8,18.5,30.12,NNW,345,13.0,14.0,60,0.00,,,0.00,Wunderground v.1.15,2013-11-03 14:55:00,
2013-11-03 10:00:00,30.9,18.6,30.13,NW,318,13.0,18.0,60,0.00,,,0.00,Wunderground v.1.15,2013-11-03 15:00:00,
2013-11-03 10:05:00,31.0,18.3,30.13,NW,320,13.0,18.0,59,0.00,,,0.00,Wunderground v.1.15,2013-11-03 15:05:00,
2013-11-03 10:10:00,31.4,19.5,30.13,NW,307,12.0,12.0,61,0.00,,,0.00,Wunderground v.1.15,2013-11-03 15:10:00,
2013-11-03 10:15:00,31.3,19.0,30.13,NNW,338,10.0,12.0,60,0.00,,,0.00,Wunderground v.1.15,2013-11-03 15:15:00,
2013-11-03 10:20:00,31.6,18.9,30.14,NNW,341,10.0,12.0,59,0.00,,,0.00,Wunderground v.1.15,2013-11-03 15:20:00,
2013-11-03 10:25:00,31.5,18.8,30.14,North,351,11.0,12.0,59,0.00,,,0.00,Wunderground v.1.15,2013-11-03 15:25:00,
2013-11-03 10:30:00,31.5,18.8,30.14,North,360,11.0,14.0,59,0.00,,,0.00,Wunderground v.1.15,2013-11-03 15:30:00,
2013-11-03 10:35:00,31.7,19.0,30.14,NNE,20,11.0,14.0,59,0.00,,,0.00,Wunderground v.1.15,2013-11-03 15:35:00,
2013-11-03 10:45:00,31.9,19.2,30.14,NNW,327,12.0,17.0,59,0.00,,,0.00,Wunderground v.1.15,2013-11-03 15:45:00,
2013-11-03 10:50:00,32.0,18.9,30.14,NNW,345,13.0,13.0,58,0.00,,,0.00,Wunderground v.1.15,2013-11-03 15:50:00,
2013-11-03 10:55:00,32.3,20.0,30.14,NNE,28,12.0,13.0,60,0.00,,,0.00,Wunderground v.1.15,2013-11-03 15:55:00,
2013-11-03 11:00:00,32.5,19.3,30.14,WNW,301,8.0,8.0,58,0.00,,,0.00,Wunderground v.1.15,2013-11-03 16:00:00,
2013-11-03 11:05:00,32.5,19.7,30.15,NNW,338,7.0,13.0,59,0.00,,,0.00,Wunderground v.1.15,2013-11-03 16:05:00,
2013-11-03 11:10:00,32.5,20.1,30.14,North,360,8.0,10.0,60,0.00,,,0.00,Wunderground v.1.15,2013-11-03 16:10:00,
2013-11-03 11:15:00,32.8,20.0,30.14,NNW,337,7.0,10.0,59,0.00,,,0.00,Wunderground v.1.15,2013-11-03 16:15:00,
2013-11-03 11:20:00,32.5,19.3,30.14,WNW,296,8.0,8.0,58,0.00,,,0.00,Wunderground v.1.15,2013-11-03 16:20:00,
2013-11-03 11:25:00,32.3,20.0,30.14,WNW,296,8.0,8.0,60,0.00,,,0.00,Wunderground v.1.15,2013-11-03 16:25:00,
2013-11-03 11:30:00,32.4,20.0,30.14,NW,325,7.0,9.0,60,0.00,,,0.00,Wunderground v.1.15,2013-11-03 16:30:00,
2013-11-03 11:35:00,32.7,20.3,30.14,NW,311,7.0,9.0,60,0.00,,,0.00,Wunderground v.1.15,2013-11-03 16:35:00,
2013-11-03 11:45:00,32.8,19.6,30.14,NW,321,7.0,7.0,58,0.00,,,0.00,Wunderground v.1.15,2013-11-03 16:45:00,
2013-11-03 11:50:00,32.6,19.4,30.14,NW,304,8.0,8.0,58,0.00,,,0.00,Wunderground v.1.15,2013-11-03 16:50:00,
2013-11-03 11:55:00,32.7,20.7,30.14,NNW,343,6.0,8.0,61,0.00,,,0.00,Wunderground v.1.15,2013-11-03 16:55:00,
2013-11-03 12:00:00,33.1,19.5,30.14,NW,323,5.0,5.0,57,0.00,,,0.00,Wunderground v.1.15,2013-11-03 17:00:00,
2013-11-03 12:05:00,33.1,20.3,30.14,NNE,20,4.0,12.0,59,0.00,,,0.00,Wunderground v.1.15,2013-11-03 17:05:00,
2013-11-03 12:15:00,33.6,20.0,30.15,NNE,15,10.0,10.0,57,0.00,,,0.00,Wunderground v.1.15,2013-11-03 17:15:00,
2013-11-03 12:20:00,33.6,20.4,30.14,North,349,9.0,9.0,58,0.00,,,0.00,Wunderground v.1.15,2013-11-03 17:20:00,
2013-11-03 12:25:00,33.6,20.0,30.15,NW,323,9.0,10.0,57,0.00,,,0.00,Wunderground v.1.15,2013-11-03 17:25:00,
2013-11-03 12:30:00,33.8,19.7,30.14,North,349,8.0,8.0,56,0.00,,,0.00,Wunderground v.1.15,2013-11-03 17:30:00,
2013-11-03 12:35:00,34.1,20.9,30.15,WNW,299,7.0,8.0,58,0.00,,,0.00,Wunderground v.1.15,2013-11-03 17:35:00,
2013-11-03 12:40:00,33.9,19.8,30.15,NW,305,7.0,7.0,56,0.00,,,0.00,Wunderground v.1.15,2013-11-03 17:40:00,
2013-11-03 12:45:00,34.1,20.0,30.15,NNW,338,8.0,8.0,56,0.00,,,0.00,Wunderground v.1.15,2013-11-03 17:45:00,
2013-11-03 12:50:00,34.0,19.9,30.15,NW,306,8.0,8.0,56,0.00,,,0.00,Wunderground v.1.15,2013-11-03 17:50:00,
2013-11-03 12:55:00,34.4,21.1,30.15,NW,308,7.0,8.0,58,0.00,,,0.00,Wunderground v.1.15,2013-11-03 17:55:00,
2013-11-03 13:00:00,34.4,20.3,30.15,NW,323,5.0,5.0,56,0.00,,,0.00,Wunderground v.1.15,2013-11-03 18:00:00,
2013-11-03 13:10:00,34.4,19.9,30.15,NNW,348,10.0,11.0,55,0.00,,,0.00,Wunderground v.1.15,2013-11-03 18:10:00,
2013-11-03 13:15:00,34.4,19.5,30.15,WNW,293,11.0,11.0,54,0.00,,,0.00,Wunderground v.1.15,2013-11-03 18:15:00,
2013-11-03 13:25:00,34.4,19.9,30.15,WNW,282,10.0,13.0,55,0.00,,,0.00,Wunderground v.1.15,2013-11-03 18:25:00,
2013-11-03 13:30:00,34.4,19.9,30.16,NW,306,7.0,7.0,55,0.00,,,0.00,Wunderground v.1.15,2013-11-03 18:30:00,
2013-11-03 13:35:00,34.4,19.0,30.16,NW,321,7.0,7.0,53,0.00,,,0.00,Wunderground v.1.15,2013-11-03 18:35:00,
2013-11-03 13:40:00,34.4,19.5,30.16,NNW,342,8.0,8.0,54,0.00,,,0.00,Wunderground v.1.15,2013-11-03 18:40:00,
2013-11-03 13:45:00,34.6,19.2,30.16,NW,310,7.0,8.0,53,0.00,,,0.00,Wunderground v.1.15,2013-11-03 18:45:00,
2013-11-03 13:55:00,34.6,19.2,30.17,NW,307,6.0,11.0,53,0.00,,,0.00,Wunderground v.1.15,2013-11-03 18:55:00,
2013-11-03 14:00:00,34.4,18.6,30.17,NNW,327,7.0,7.0,52,0.00,,,0.00,Wunderground v.1.15,2013-11-03 19:00:00,
2013-11-03 14:05:00,34.5,18.2,30.18,WNW,297,6.0,7.0,51,0.00,,,0.00,Wunderground v.1.15,2013-11-03 19:05:00,
2013-11-03 14:10:00,34.4,18.6,30.18,WNW,292,6.0,9.0,52,0.00,,,0.00,Wunderground v.1.15,2013-11-03 19:10:00,
2013-11-03 14:15:00,34.4,18.1,30.18,NW,311,6.0,9.0,51,0.00,,,0.00,Wunderground v.1.15,2013-11-03 19:15:00,
2013-11-03 14:25:00,34.4,18.1,30.18,WNW,293,6.0,7.0,51,0.00,,,0.00,Wunderground v.1.15,2013-11-03 19:25:00,
2013-11-03 14:30:00,34.4,18.6,30.18,NW,325,5.0,5.0,52,0.00,,,0.00,Wunderground v.1.15,2013-11-03 19:30:00,
2013-11-03 14:35:00,34.4,17.7,30.19,WNW,299,6.0,6.0,50,0.00,,,0.00,Wunderground v.1.15,2013-11-03 19:35:00,
2013-11-03 14:40:00,34.4,17.2,30.19,NW,315,7.0,8.0,49,0.00,,,0.00,Wunderground v.1.15,2013-11-03 19:40:00,
2013-11-03 14:45:00,34.4,16.2,30.19,North,360,8.0,8.0,47,0.00,,,0.00,Wunderground v.1.15,2013-11-03 19:45:00,
2013-11-03 14:50:00,34.4,16.7,30.19,WNW,296,8.0,8.0,48,0.00,,,0.00,Wunderground v.1.15,2013-11-03 19:50:00,
2013-11-03 14:55:00,34.4,16.7,30.20,NNW,342,6.0,8.0,48,0.00,,,0.00,Wunderground v.1.15,2013-11-03 19:55:00,
2013-11-03 15:00:00,34.2,15.5,30.20,WNW,298,5.0,5.0,46,0.00,,,0.00,Wunderground v.1.15,2013-11-03 20:00:00,
2013-11-03 15:10:00,34.0,15.4,30.20,NNW,327,5.0,6.0,46,0.00,,,0.00,Wunderground v.1.15,2013-11-03 20:10:00,
2013-11-03 15:15:00,33.8,15.7,30.21,NNW,336,5.0,6.0,47,0.00,,,0.00,Wunderground v.1.15,2013-11-03 20:15:00,
2013-11-03 15:20:00,33.8,15.7,30.21,WNW,298,6.0,6.0,47,0.00,,,0.00,Wunderground v.1.15,2013-11-03 20:20:00,
2013-11-03 15:25:00,33.5,15.4,30.21,NNW,327,6.0,12.0,47,0.00,,,0.00,Wunderground v.1.15,2013-11-03 20:25:00,
2013-11-03 15:30:00,33.4,15.3,30.21,NW,306,5.0,5.0,47,0.00,,,0.00,Wunderground v.1.15,2013-11-03 20:30:00,
2013-11-03 15:35:00,33.3,15.2,30.22,WNW,296,4.0,5.0,47,0.00,,,0.00,Wunderground v.1.15,2013-11-03 20:35:00,
2013-11-03 15:45:00,32.5,14.5,30.22,NNW,340,3.0,6.0,47,0.00,,,0.00,Wunderground v.1.15,2013-11-03 20:45:00,
2013-11-03 15:50:00,32.4,14.4,30.22,NW,312,3.0,4.0,47,0.00,,,0.00,Wunderground v.1.15,2013-11-03 20:50:00,
2013-11-03 16:00:00,32.3,14.8,30.22,NW,315,2.0,2.0,48,0.00,,,0.00,Wunderground v.1.15,2013-11-03 21:00:00,
2013-11-03 16:05:00,32.1,14.1,30.23,WNW,296,2.0,4.0,47,0.00,,,0.00,Wunderground v.1.15,2013-11-03 21:05:00,
2013-11-03 16:10:00,32.0,14.5,30.23,NW,317,2.0,6.0,48,0.00,,,0.00,Wunderground v.1.15,2013-11-03 21:10:00,
2013-11-03 16:15:00,31.8,14.3,30.24,NW,314,3.0,6.0,48,0.00,,,0.00,Wunderground v.1.15,2013-11-03 21:15:00,
2013-11-03 16:25:00,31.5,14.0,30.24,NW,324,2.0,6.0,48,0.00,,,0.00,Wunderground v.1.15,2013-11-03 21:25:00,
2013-11-03 16:30:00,31.5,14.5,30.24,NW,309,2.0,2.0,49,0.00,,,0.00,Wunderground v.1.15,2013-11-03 21:30:00,
2013-11-03 16:35:00,31.4,14.4,30.24,NW,317,3.0,3.0,49,0.00,,,0.00,Wunderground v.1.15,2013-11-03 21:35:00,
2013-11-03 16:40:00,31.2,14.2,30.24,NW,317,3.0,4.0,49,0.00,,,0.00,Wunderground v.1.15,2013-11-03 21:40:00,
2013-11-03 16:45:00,31.3,14.3,30.25,NW,313,3.0,4.0,49,0.00,,,0.00,Wunderground v.1.15,2013-11-03 21:45:00,
2013-11-03 16:50:00,31.2,14.7,30.25,NW,306,3.0,3.0,50,0.00,,,0.00,Wunderground v.1.15,2013-11-03 21:50:00,
2013-11-03 16:55:00,31.0,14.5,30.25,NW,321,2.0,3.0,50,0.00,,,0.00,Wunderground v.1.15,2013-11-03 21:55:00,
2013-11-03 17:00:00,30.9,14.0,30.26,NW,321,1.0,1.0,49,0.00,,,0.00,Wunderground v.1.15,2013-11-03 22:00:00,
2013-11-03 17:10:00,30.6,14.1,30.26,WNW,300,1.0,1.0,50,0.00,,,0.00,Wunderground v.1.15,2013-11-03 22:10:00,
2013-11-03 17:15:00,30.6,14.1,30.27,WNW,302,1.0,1.0,50,0.00,,,0.00,Wunderground v.1.15,2013-11-03 22:15:00,
2013-11-03 17:20:00,30.5,14.0,30.27,WNW,302,1.0,1.0,50,0.00,,,0.00,Wunderground v.1.15,2013-11-03 22:20:00,
2013-11-03 17:25:00,30.3,13.9,30.27,WNW,302,0.0,2.0,50,0.00,,,0.00,Wunderground v.1.15,2013-11-03 22:25:00,
2013-11-03 17:30:00,30.2,14.2,30.27,WNW,302,0.0,0.0,51,0.00,,,0.00,Wunderground v.1.15,2013-11-03 22:30:00,
2013-11-03 17:35:00,30.0,14.0,30.28,WNW,302,0.0,0.0,51,0.00,,,0.00,Wunderground v.1.15,2013-11-03 22:35:00,
2013-11-03 17:40:00,29.7,14.2,30.28,WNW,302,0.0,0.0,52,0.00,,,0.00,Wunderground v.1.15,2013-11-03 22:40:00,
2013-11-03 17:45:00,29.4,13.9,30.28,WNW,302,0.0,0.0,52,0.00,,,0.00,Wunderground v.1.15,2013-11-03 22:45:00,
2013-11-03 17:55:00,28.9,13.9,30.29,WNW,302,0.0,0.0,53,0.00,,,0.00,Wunderground v.1.15,2013-11-03 22:55:00,
2013-11-03 18:00:00,28.7,13.7,30.30,WNW,302,0.0,0.0,53,0.00,,,0.00,Wunderground v.1.15,2013-11-03 23:00:00,
2013-11-03 18:05:00,28.5,13.9,30.30,WNW,302,0.0,0.0,54,0.00,,,0.00,Wunderground v.1.15,2013-11-03 23:05:00,
2013-11-03 18:10:00,28.5,13.9,30.30,WNW,302,0.0,0.0,54,0.00,,,0.00,Wunderground v.1.15,2013-11-03 23:10:00,
2013-11-03 18:15:00,28.4,14.3,30.31,WNW,302,0.0,0.0,55,0.00,,,0.00,Wunderground v.1.15,2013-11-03 23:15:00,
2013-11-03 18:25:00,28.5,14.4,30.31,WNW,302,0.0,0.0,55,0.00,,,0.00,Wunderground v.1.15,2013-11-03 23:25:00,
2013-11-03 18:30:00,28.4,14.3,30.31,WNW,302,0.0,0.0,55,0.00,,,0.00,Wunderground v.1.15,2013-11-03 23:30:00,
2013-11-03 18:35:00,28.2,14.5,30.31,WNW,302,0.0,0.0,56,0.00,,,0.00,Wunderground v.1.15,2013-11-03 23:35:00,
2013-11-03 18:40:00,27.8,14.1,30.31,WNW,302,0.0,0.0,56,0.00,,,0.00,Wunderground v.1.15,2013-11-03 23:40:00,
2013-11-03 18:45:00,27.6,13.9,30.31,WNW,302,0.0,0.0,56,0.00,,,0.00,Wunderground v.1.15,2013-11-03 23:45:00,
2013-11-03 18:50:00,27.4,14.1,30.31,WNW,302,0.0,0.0,57,0.00,,,0.00,Wunderground v.1.15,2013-11-03 23:50:00,
2013-11-03 18:55:00,27.4,14.5,30.32,WNW,302,0.0,0.0,58,0.00,,,0.00,Wunderground v.1.15,2013-11-03 23:55:00,
2013-11-03 19:00:00,27.4,14.1,30.32,WNW,302,0.0,0.0,57,0.00,,,0.00,Wunderground v.1.15,2013-11-04 00:00:00,
2013-11-03 19:05:00,27.5,14.6,30.32,WNW,302,0.0,0.0,58,0.00,,,0.00,Wunderground v.1.15,2013-11-04 00:05:00,
2013-11-03 19:10:00,27.6,14.7,30.32,WNW,302,0.0,0.0,58,0.00,,,0.00,Wunderground v.1.15,2013-11-04 00:10:00,
2013-11-03 19:15:00,27.6,14.3,30.32,WNW,302,0.0,0.0,57,0.00,,,0.00,Wunderground v.1.15,2013-11-04 00:15:00,
2013-11-03 19:20:00,27.5,16.2,30.32,WNW,302,0.0,0.0,62,0.00,,,0.00,Wunderground v.1.15,2013-11-04 00:20:00,
2013-11-03 19:25:00,27.5,14.6,30.33,WNW,302,0.0,0.0,58,0.00,,,0.00,Wunderground v.1.15,2013-11-04 00:25:00,
2013-11-03 19:30:00,27.5,16.2,30.33,WNW,302,0.0,0.0,62,0.00,,,0.00,Wunderground v.1.15,2013-11-04 00:30:00,
2013-11-03 19:35:00,27.5,14.6,30.33,WNW,302,0.0,0.0,58,0.00,,,0.00,Wunderground v.1.15,2013-11-04 00:35:00,
2013-11-03 19:45:00,27.2,14.4,30.33,WNW,302,0.0,0.0,58,0.00,,,0.00,Wunderground v.1.15,2013-11-04 00:45:00,
2013-11-03 19:50:00,27.0,14.2,30.34,WNW,302,0.0,0.0,58,0.00,,,0.00,Wunderground v.1.15,2013-11-04 00:50:00,
2013-11-03 20:00:00,27.0,14.2,30.34,WNW,302,0.0,0.0,58,0.00,,,0.00,Wunderground v.1.15,2013-11-04 01:00:00,
2013-11-03 20:10:00,27.0,14.6,30.35,WNW,302,0.0,0.0,59,0.00,,,0.00,Wunderground v.1.15,2013-11-04 01:10:00,
2013-11-03 20:15:00,27.0,14.6,30.35,WNW,302,0.0,0.0,59,0.00,,,0.00,Wunderground v.1.15,2013-11-04 01:15:00,
2013-11-03 20:20:00,27.0,14.6,30.35,WNW,302,0.0,0.0,59,0.00,,,0.00,Wunderground v.1.15,2013-11-04 01:20:00,
2013-11-03 20:25:00,27.0,14.6,30.36,WNW,302,0.0,0.0,59,0.00,,,0.00,Wunderground v.1.15,2013-11-04 01:25:00,
2013-11-03 20:30:00,26.9,14.9,30.36,WNW,302,0.0,0.0,60,0.00,,,0.00,Wunderground v.1.15,2013-11-04 01:30:00,
2013-11-03 20:40:00,26.7,14.7,30.36,WNW,302,0.0,0.0,60,0.00,,,0.00,Wunderground v.1.15,2013-11-04 01:40:00,
2013-11-03 20:45:00,26.6,14.6,30.36,WNW,302,0.0,0.0,60,0.00,,,0.00,Wunderground v.1.15,2013-11-04 01:45:00,
2013-11-03 20:50:00,26.5,14.5,30.36,WNW,302,0.0,0.0,60,0.00,,,0.00,Wunderground v.1.15,2013-11-04 01:50:00,
2013-11-03 20:55:00,26.3,15.0,30.36,WNW,302,0.0,0.0,62,0.00,,,0.00,Wunderground v.1.15,2013-11-04 01:55:00,
2013-11-03 21:00:00,26.2,14.9,30.36,WNW,302,0.0,0.0,62,0.00,,,0.00,Wunderground v.1.15,2013-11-04 02:00:00,
2013-11-03 21:05:00,26.2,14.9,30.37,WNW,302,0.0,0.0,62,0.00,,,0.00,Wunderground v.1.15,2013-11-04 02:05:00,
2013-11-03 21:10:00,26.2,15.3,30.37,WNW,302,0.0,0.0,63,0.00,,,0.00,Wunderground v.1.15,2013-11-04 02:10:00,
2013-11-03 21:15:00,26.0,15.1,30.37,WNW,302,0.0,0.0,63,0.00,,,0.00,Wunderground v.1.15,2013-11-04 02:15:00,
2013-11-03 21:20:00,25.9,15.0,30.37,WNW,302,0.0,0.0,63,0.00,,,0.00,Wunderground v.1.15,2013-11-04 02:20:00,
2013-11-03 21:25:00,25.9,15.0,30.38,WNW,302,0.0,0.0,63,0.00,,,0.00,Wunderground v.1.15,2013-11-04 02:25:00,
2013-11-03 21:30:00,26.0,15.1,30.38,WNW,302,0.0,0.0,63,0.00,,,0.00,Wunderground v.1.15,2013-11-04 02:30:00,
2013-11-03 21:35:00,26.2,15.3,30.38,WNW,302,0.0,0.0,63,0.00,,,0.00,Wunderground v.1.15,2013-11-04 02:35:00,
2013-11-03 21:40:00,26.3,15.0,30.38,WNW,302,0.0,0.0,62,0.00,,,0.00,Wunderground v.1.15,2013-11-04 02:40:00,
2013-11-03 21:45:00,26.3,15.4,30.38,WNW,302,0.0,0.0,63,0.00,,,0.00,Wunderground v.1.15,2013-11-04 02:45:00,
2013-11-03 21:55:00,26.1,15.6,30.38,WNW,302,0.0,0.0,64,0.00,,,0.00,Wunderground v.1.15,2013-11-04 02:55:00,
2013-11-03 22:00:00,25.9,15.0,30.39,WNW,302,0.0,0.0,63,0.00,,,0.00,Wunderground v.1.15,2013-11-04 03:00:00,
2013-11-03 22:05:00,25.8,15.3,30.39,WNW,302,0.0,0.0,64,0.00,,,0.00,Wunderground v.1.15,2013-11-04 03:05:00,
2013-11-03 22:10:00,25.7,15.2,30.39,WNW,302,0.0,0.0,64,0.00,,,0.00,Wunderground v.1.15,2013-11-04 03:10:00,
2013-11-03 22:15:00,25.8,14.9,30.38,NNW,329,0.0,0.0,63,0.00,,,0.00,Wunderground v.1.15,2013-11-04 03:15:00,
2013-11-03 22:20:00,26.0,15.1,30.39,NNW,331,0.0,0.0,63,0.00,,,0.00,Wunderground v.1.15,2013-11-04 03:20:00,
2013-11-03 22:25:00,26.1,15.2,30.38,NNW,327,0.0,0.0,63,0.00,,,0.00,Wunderground v.1.15,2013-11-04 03:25:00,
2013-11-03 22:30:00,26.1,15.2,30.38,NW,314,0.0,0.0,63,0.00,,,0.00,Wunderground v.1.15,2013-11-04 03:30:00,
2013-11-03 22:35:00,26.0,15.1,30.38,NW,314,0.0,2.0,63,0.00,,,0.00,Wunderground v.1.15,2013-11-04 03:35:00,
2013-11-03 22:40:00,26.0,15.1,30.38,NW,314,0.0,0.0,63,0.00,,,0.00,Wunderground v.1.15,2013-11-04 03:40:00,
2013-11-03 22:45:00,26.1,14.8,30.39,WNW,291,1.0,3.0,62,0.00,,,0.00,Wunderground v.1.15,2013-11-04 03:45:00,
2013-11-03 22:50:00,26.1,14.8,30.38,WNW,302,1.0,1.0,62,0.00,,,0.00,Wunderground v.1.15,2013-11-04 03:50:00,
2013-11-03 22:55:00,26.0,14.8,30.38,NW,319,0.0,1.0,62,0.00,,,0.00,Wunderground v.1.15,2013-11-04 03:55:00,
2013-11-03 23:00:00,25.9,15.0,30.38,NW,319,0.0,1.0,63,0.00,,,0.00,Wunderground v.1.15,2013-11-04 04:00:00,
2013-11-03 23:05:00,25.7,14.8,30.39,NW,319,0.0,1.0,63,0.00,,,0.00,Wunderground v.1.15,2013-11-04 04:05:00,
2013-11-03 23:15:00,25.4,14.9,30.38,NNW,330,0.0,0.0,64,0.00,,,0.00,Wunderground v.1.15,2013-11-04 04:15:00,
2013-11-03 23:20:00,25.3,15.2,30.38,NNW,330,0.0,2.0,65,0.00,,,0.00,Wunderground v.1.15,2013-11-04 04:20:00,
2013-11-03 23:25:00,25.2,15.1,30.39,NW,325,1.0,2.0,65,0.00,,,0.00,Wunderground v.1.15,2013-11-04 04:25:00,
2013-11-03 23:30:00,25.2,15.1,30.39,NW,325,1.0,1.0,65,0.00,,,0.00,Wunderground v.1.15,2013-11-04 04:30:00,
2013-11-03 23:35:00,25.2,15.1,30.40,NW,326,0.0,1.0,65,0.00,,,0.00,Wunderground v.1.15,2013-11-04 04:35:00,
2013-11-03 23:40:00,25.2,14.7,30.40,NNW,331,0.0,0.0,64,0.00,,,0.00,Wunderground v.1.15,2013-11-04 04:40:00,
2013-11-03 23:45:00,25.1,14.6,30.40,NNW,331,0.0,0.0,64,0.00,,,0.00,Wunderground v.1.15,2013-11-04 04:45:00,
2013-11-03 23:50:00,25.2,14.7,30.41,NNW,331,0.0,0.0,64,0.00,,,0.00,Wunderground v.1.15,2013-11-04 04:50:00,
2013-11-03 23:55:00,25.4,14.5,30.41,NW,321,0.0,1.0,63,0.00,,,0.00,Wunderground v.1.15,2013-11-04 04:55:00,